Flag for U.S.A. Weather past 2 weeks in New Haven, Connecticut, U.S.A.

Now
69 °F

Clear.


Feels Like: 69 °F
Forecast: 66 / 85 °F
Wind: No wind

Location: Tweed-New Haven Airport

Current Time: Jul 22, 2014 at 5:54:49 AM

Latest Report: Jul 22, 2014 at 4:53 AM


Visibility: 10 mi

Pressure: 30.16 "Hg

Humidity: 84%

Dew point: 64 °F

Location of New HavenLocation

Historic Weather in New Haven — Graph

°F

New Haven temperature yesterday

Maximum temperature yesterday: 83 °F (at 12:53 PM)
Minimum temperature yesterday: 62 °F (at 4:53 AM)
Average temperature yesterday: 72 °F

Past Weeks' High & Low Weather Summary

 TemperatureHumidityPressure
High89 °F (Jul 8, 2:53 PM)94% (Jul 14, 9:00 PM)30.26 "Hg (Jul 14, 9:00 PM)
Low62 °F (Jul 21, 4:53 AM)31% (Jul 18, 1:53 PM)29.69 "Hg (Jul 8, 7:53 PM)
Average75 °F70%30.01 "Hg
* Reported Jul 7 3:53 AM — Jul 22 3:53 AM, New Haven, Weather by CustomWeather, © 2014

Note: Actual official high and low records may vary slightly from our data, if they occured in-between our weather recording intervals... More about our weather records

Advertising

New Haven weather history for previous 24 hours

 ConditionsComfort  
Time TempWeatherWind HumidityBarometerVisibility
3:53 AM
Jul 22
72 °FClear.3 mph81%30.15 "Hg10 mi
2:53 AM72 °FClear.No wind78%30.16 "Hg10 mi
1:53 AM73 °FClear.3 mph74%30.16 "Hg10 mi
12:53 AM73 °FClear.No wind76%30.16 "Hg10 mi
11:53 PM
Jul 21
73 °FClear.3 mph74%30.17 "Hg10 mi
10:53 PM73 °FClear.3 mph71%30.17 "Hg10 mi
9:53 PM74 °FPartly cloudy.3 mph71%30.17 "Hg10 mi
8:53 PM74 °FPartly sunny.5 mph76%30.17 "Hg10 mi
7:53 PM76 °FPartly sunny.8 mph69%30.16 "Hg10 mi
6:53 PM78 °FSunny.5 mph56%30.16 "Hg10 mi
5:53 PM79 °FSunny.6 mph56%30.15 "Hg10 mi
4:53 PM78 °FPassing clouds.7 mph60%30.14 "Hg10 mi
3:53 PM79 °FPassing clouds.7 mph54%30.16 "Hg10 mi
2:53 PM79 °FPassing clouds.6 mph56%30.16 "Hg10 mi
1:53 PM77 °FPassing clouds.9 mph60%30.17 "Hg10 mi
12:53 PM83 °FSunny.No wind43%30.18 "Hg10 mi
11:53 AM79 °FSunny.6 mph48%30.19 "Hg10 mi
10:53 AM78 °FSunny.9 mph52%30.19 "Hg10 mi
9:53 AM75 °FSunny.7 mph58%30.19 "Hg10 mi
8:53 AM71 °FSunny.7 mph68%30.20 "Hg10 mi
7:53 AM67 °FPassing clouds.8 mph79%30.20 "Hg10 mi
6:53 AM64 °FScattered clouds.5 mph84%30.19 "Hg10 mi
5:53 AM62 °FPassing clouds.3 mph86%30.18 "Hg10 mi
Weather by CustomWeather, © 2014

See weather overviewHow to use our weather pages